#timestamp,LO_Frequency,Hit 
1498212015.6,286046989.2,N
1498212035.4,286046989.5,N
1498212055.2,286046989.3,N
1498212075.1,286046987.2,N
1498212076.0,286046987.2,N
1498212095.8,286046987.6,N
1498212115.6,286046985.3,N
1498212135.5,286046987.9,N
1498212155.3,286046985.3,N
1498212175.1,286046983.7,Y
1498212195.9,286046995.6,N
1498212215.7,286046995.1,N
1498212235.5,286046996.0,N
1498212255.4,286046994.0,N
1498212275.2,286046994.8,N
1498212295.0,286046990.5,N
1498212295.9,286046990.5,N
1498212315.8,286046993.1,N
1498212335.6,286046991.0,N
1498212355.4,286046990.2,N
1498212375.2,286046990.6,N
1498212395.1,286046990.9,N
1498212396.0,286046990.9,N
1498212415.8,286046990.9,N
1498212435.6,286046989.2,N
1498212455.5,286046989.8,N
1498212475.3,286046986.9,N
1498212495.1,286046989.4,N
1498212515.9,286046987.1,N
1498212535.7,286046988.1,N
1498212555.5,286046985.6,N
1498212575.4,286046985.9,N
1498212595.2,286046985.6,N
1498212615.0,286046986.4,N
1498212615.9,286046986.4,N
1498212635.8,286046984.9,Y
1498212655.6,286046994.5,N
1498212675.4,286046990.5,N
1498212695.3,286046992.8,N
1498212715.1,286046991.9,N
1498212716.0,286046991.9,N
1498212735.8,286046990.3,N
1498212755.7,286046990.7,N
1498212775.5,286046990.2,N
1498212795.3,286046989.8,N
1498212815.1,286046987.5,N
1498212835.9,286046987.1,N
1498212855.7,286046988.2,N
1498212875.5,286046987.0,N
1498212895.4,286046987.5,N
1498212915.2,286046987.5,N
1498212935.0,286046987.2,N
1498212935.9,286046987.2,N
1498212955.8,286046987.2,N
1498212975.6,286046987.4,N
1498212995.4,286046987.2,N
1498213015.3,286046988.1,N
1498213035.1,286046987.2,N
1498213036.0,286046987.2,N
1498213055.8,286046987.8,N
1498213075.6,286046988.2,N
1498213095.5,286046988.2,N
1498213115.3,286046987.5,N
1498213135.1,286046987.8,N
1498213155.9,286046987.6,N
1498213175.7,286046987.9,N
1498213195.5,286046985.8,Y
1498213215.4,286046995.0,N
1498213235.2,286046995.1,N
1498213255.0,286046996.2,N
1498213255.9,286046996.2,N
1498213275.8,286046995.9,N
1498213295.6,286046996.3,N
1498213315.4,286046995.9,N
1498213335.3,286046996.4,N
1498213355.1,286046993.4,N
1498213356.0,286046993.4,N
1498213375.8,286046995.8,N
1498213395.7,286046996.1,N
1498213415.5,286046993.3,N
1498213435.3,286046993.5,N
1498213455.1,286046995.5,N
1498213475.9,286046995.3,N
1498213495.7,286046996.3,N
1498213515.5,286046991.7,N
1498213535.4,286046992.3,N
1498213555.2,286046991.7,N
1498213575.0,286046992.6,N
1498213575.9,286046992.6,N
1498213595.8,286046990.5,N
1498213615.6,286046990.8,N
1498213635.4,286046991.3,N
1498213655.3,286046988.9,N
1498213675.1,286046988.6,N
1498213676.0,286046988.6,N
1498213695.8,286046988.7,N
1498213715.7,286046986.9,Y
1498213735.5,286046999.2,N
1498213755.3,286046996.9,N
1498213775.2,286046999.1,N
1498213795.9,286046997.4,N
1498213815.7,286046997.7,N
1498213835.5,286046997.9,N
1498213855.4,286046997.3,N
1498213875.2,286046995.7,N
1498213895.0,286046995.8,N
1498213895.9,286046995.8,N
1498213915.8,286046995.7,N
1498213935.6,286046996.4,N
1498213955.4,286046993.6,N
1498213975.3,286046994.5,N
1498213995.1,286046992.6,N
1498213996.0,286046992.6,N
1498214015.8,286046992.1,N
1498214035.7,286046993.0,N
1498214055.5,286046993.0,N
1498214075.3,286046990.6,N
1498214095.1,286046991.2,N
1498214115.9,286046988.8,N
1498214135.7,286046989.4,N
1498214155.5,286046989.7,N
1498214175.4,286046989.1,N
1498214195.2,286046989.9,N
1498214215.0,286046989.9,N
1498214215.9,286046989.9,N
1498214235.8,286046987.6,N
1498214255.6,286046987.5,Y
1498214275.4,286046997.6,N
1498214295.3,286046995.3,N
1498214315.1,286046996.3,N
1498214316.0,286046996.3,N
1498214335.8,286046993.7,N
1498214355.7,286046993.9,N
1498214375.5,286046993.7,N
1498214395.3,286046993.6,N
1498214415.2,286046994.0,N
1498214435.9,286046994.1,N
1498214455.7,286046994.1,N
1498214475.5,286046992.5,N
1498214495.4,286046992.2,N
1498214515.2,286046992.5,N
1498214535.0,286046993.0,N
1498214535.9,286046993.0,N
1498214555.8,286046992.5,N
1498214575.6,286046990.5,N
1498214595.4,286046992.8,N
1498214615.3,286046990.4,N
1498214635.1,286046990.7,N
1498214636.0,286046990.7,N
1498214655.8,286046988.9,N
1498214675.7,286046991.5,N
1498214695.5,286046991.5,N
1498214715.3,286046988.8,N
1498214735.2,286046987.7,Y
1498214755.9,286046994.9,N
1498214775.7,286046993.7,N
1498214795.6,286046993.3,N
1498214815.4,286046993.9,N
1498214835.2,286046993.8,N
1498214855.0,286046992.2,N
1498214856.0,286046992.2,N
1498214875.8,286046994.3,N
1498214895.6,286046994.8,N
1498214915.4,286046992.0,N
1498214935.3,286046992.1,N
1498214955.1,286046992.1,N
1498214975.8,286046994.7,N
1498214995.7,286046992.1,N
1498215015.5,286046994.3,N
1498215035.3,286046992.7,N
1498215055.2,286046992.6,N
1498215075.9,286046990.5,N
1498215095.7,286046990.8,N
1498215115.8,286046991.4,N
1498215135.7,286046992.7,N
1498215155.2,286046991.4,N
1498215175.9,286046991.3,N
1498215195.7,286046991.6,N
1498215215.6,286046991.5,N
1498215235.4,286046991.3,N
1498215255.2,286046991.3,N
1498215275.0,286046989.1,N
1498215276.0,286046989.1,N
1498215295.8,286046987.3,Y
1498215315.6,286046997.5,N
1498215335.5,286046994.9,N
1498215355.3,286046997.4,N
1498215375.1,286046997.9,N
1498215395.8,286046995.4,N
1498215415.7,286046997.5,N
1498215435.5,286046995.2,N
1498215455.3,286046995.0,N
1498215475.2,286046995.4,N
1498215495.9,286046996.1,N
1498215515.7,286046993.7,N
1498215535.6,286046993.5,N
1498215555.4,286046993.9,N
1498215575.2,286046994.1,N
1498215595.1,286046994.5,N
1498215596.0,286046994.5,N
